Tracking 30743 objects as of 22-Jun-2025
HD Live streaming from Space Station
objects crossing your sky now

BEIDOU 2 G8

Track BEIDOU 2 G8 now!
BEIDOU 2 G8 is classified as:


NORAD ID: 44231
Int'l Code: 2019-027A
Perigee: 35,776.5 km
Apogee: 35,810.8 km
Inclination: 1.7 °
Period: 1,436.1 minutes
Semi major axis: 42164 km
RCS: Unknown
Launch date: May 17, 2019
Source: People's Republic of China (PRC)
Launch site: Xichang Space Center, China (XSC)
Your satellite tracking list
Your tracking list is empty




NASA's NSSDC Master Catalog

Two Line Element Set (TLE):
1 44231U 19027A   25172.88762546 -.00000240  00000-0  00000-0 0  9993
2 44231   1.7025  75.1558 0004077 254.4910  44.7202  1.00272130 22464
Source of the keplerian elements: AFSPC